Location: Brede
(50.9167°N, 0.6000°E)
Time: 12:12:06
(UTC+00:00)

Transit 2A Rocket - All Passes

Search period start: 30 November 2020 00:00
Search period end: 10 December 2020 00:00
Orbit: 588 x 914 km, 66.7° (Epoch: 29 November)

Date Brightness Start Highest point End Pass type
(mag) Time Alt. Az. Time Alt. Az. Time Alt. Az.
30 Nov - 01:05:14 10° S 01:10:34 35° ESE 01:15:37 10° NE night (unlit)
30 Nov - 02:47:16 10° SW 02:53:05 56° NW 02:58:28 10° NNE visible
30 Nov - 04:32:35 10° WNW 04:36:46 21° NNW 04:40:44 10° NNE visible
30 Nov - 06:18:32 10° NNW 06:21:23 14° N 06:24:07 10° NE visible
30 Nov - 08:01:50 10° NNW 08:05:54 23° NNE 08:09:42 10° E daylight
30 Nov - 09:44:17 10° NW 09:49:19 82° NE 09:53:53 10° SE daylight
30 Nov - 11:28:08 10° WNW 11:31:07 17° WSW 11:33:58 10° SW daylight
01 Dec - 00:23:41 10° SSE 00:28:13 23° ESE 00:32:33 10° ENE night (unlit)
01 Dec - 02:04:26 10° SW 02:10:23 81° NW 02:15:54 10° NE visible
01 Dec - 03:49:01 10° W 03:53:44 25° NNW 03:58:11 10° NNE visible
01 Dec - 05:35:14 10° NW 05:38:11 14° N 05:41:01 10° NNE visible
01 Dec - 07:19:14 10° NNW 07:22:51 19° NNE 07:26:15 10° ENE daylight
01 Dec - 09:01:41 10° NNW 09:06:38 53° NE 09:11:07 10° ESE daylight
01 Dec - 10:44:48 10° NW 10:48:53 27° WSW 10:52:42 10° S daylight
01 Dec - 23:42:53 10° SE 23:45:58 15° ESE 23:48:57 10° ENE night (unlit)
02 Dec - 01:21:53 10° SSW 01:27:46 70° ESE 01:33:16 10° NE night (unlit)
02 Dec - 03:05:37 10° W 03:10:49 33° NW 03:15:40 10° NNE visible
02 Dec - 04:51:43 10° NW 04:55:00 16° NNW 04:58:08 10° NNE visible
02 Dec - 06:36:32 10° NNW 06:39:44 16° NNE 06:42:44 10° NE visible
02 Dec - 08:19:09 10° NNW 08:23:49 36° NE 08:28:07 10° ESE daylight
02 Dec - 10:01:51 10° NW 10:06:32 45° WSW 10:10:49 10° S daylight
03 Dec - 00:39:38 10° S 00:45:15 46° ESE 00:50:33 10° NE night (unlit)
03 Dec - 02:22:23 10° WSW 02:27:58 45° NW 02:33:09 10° NNE visible
03 Dec - 04:08:05 10° WNW 04:11:52 18° NNW 04:15:27 10° NNE visible
03 Dec - 05:53:41 10° NNW 05:56:33 14° N 05:59:17 10° NE visible
03 Dec - 07:36:37 10° NNW 07:40:55 27° NNE 07:44:54 10° E daylight
03 Dec - 09:19:07 10° NW 09:24:04 75° SW 09:28:33 10° SSE daylight
03 Dec - 11:04:06 10° W 11:05:35 11° WSW 11:07:03 10° WSW daylight
03 Dec - 23:57:46 10° S 00:02:51 30° ESE 00:07:39 10° NE night (unlit)
04 Dec - 01:39:23 10° SW 01:45:13 64° NW 01:50:38 10° NE visible
04 Dec - 03:24:28 10° WNW 03:28:48 22° NNW 03:32:52 10° NNE visible
04 Dec - 05:10:33 10° NNW 05:13:21 14° N 05:16:01 10° NNE visible
04 Dec - 06:54:03 10° NNW 06:57:55 21° NNE 07:01:32 10° ENE visible
04 Dec - 08:36:28 10° NW 08:41:27 70° NE 08:45:59 10° SE daylight
04 Dec - 10:20:01 10° WNW 10:23:25 20° WSW 10:26:39 10° SSW daylight
04 Dec - 23:16:26 10° SSE 23:20:31 20° ESE 23:24:26 10° ENE night (unlit)
05 Dec - 00:56:39 10° SW 01:02:33 89° SE 01:08:03 10° NE night (unlit)
05 Dec - 02:40:57 10° W 02:45:48 28° NNW 02:50:21 10° NNE visible
05 Dec - 04:27:11 10° NW 04:30:09 15° N 04:33:00 10° NNE visible
05 Dec - 06:11:26 10° NNW 06:14:50 17° NNE 06:18:03 10° ENE visible
05 Dec - 07:53:54 10° NNW 07:58:44 46° NE 08:03:08 10° ESE daylight
05 Dec - 09:36:51 10° NW 09:41:08 32° WSW 09:45:07 10° S daylight
05 Dec - 22:36:11 10° SE 22:38:18 12° ESE 22:40:22 10° E night (unlit)
06 Dec - 00:14:11 10° SSW 00:19:59 61° ESE 00:25:24 10° NE night (unlit)
06 Dec - 01:57:35 10° WSW 02:02:54 36° NW 02:07:50 10° NNE visible
06 Dec - 03:43:35 10° NW 03:46:59 16° NNW 03:50:12 10° NNE visible
06 Dec - 05:28:43 10° NNW 05:31:41 15° N 05:34:32 10° NE visible
06 Dec - 07:11:22 10° NNW 07:15:53 32° NE 07:20:03 10° E daylight
06 Dec - 08:53:59 10° NW 08:58:44 54° WSW 09:03:06 10° SSE daylight
06 Dec - 23:32:04 10° S 23:37:30 40° ESE 23:42:36 10° NE night (unlit)
07 Dec - 01:14:26 10° WSW 01:20:05 50° NW 01:25:19 10° NNE night (unlit)
07 Dec - 02:59:57 10° WNW 03:03:51 19° NNW 03:07:35 10° NNE visible
07 Dec - 04:45:46 10° NNW 04:48:30 14° N 04:51:07 10° NE visible
07 Dec - 06:28:49 10° NNW 06:32:56 24° NNE 06:36:46 10° E visible
07 Dec - 08:11:17 10° NW 08:16:13 88° WSW 08:20:43 10° SE daylight
07 Dec - 09:55:32 10° WNW 09:57:54 14° WSW 10:00:11 10° SW daylight
07 Dec - 22:50:21 10° SSE 22:55:06 26° ESE 22:59:38 10° ENE night (unlit)
08 Dec - 00:31:30 10° SW 00:37:22 72° NW 00:42:46 10° NE night (unlit)
08 Dec - 02:16:21 10° W 02:20:49 23° NNW 02:25:01 10° NNE visible
08 Dec - 04:02:33 10° NW 04:05:18 14° N 04:07:56 10° NNE visible
08 Dec - 05:46:16 10° NNW 05:49:54 19° NNE 05:53:21 10° ENE visible
08 Dec - 07:28:40 10° NNW 07:33:34 59° NE 07:38:02 10° SE daylight
08 Dec - 09:11:56 10° WNW 09:15:41 23° WSW 09:19:13 10° SSW daylight
08 Dec - 22:09:17 10° SE 22:12:49 17° ESE 22:16:14 10° ENE night (unlit)
08 Dec - 23:48:52 10° SSW 23:54:44 79° SE 00:00:11 10° NE night (unlit)
09 Dec - 01:32:52 10° W 01:37:51 30° NW 01:42:30 10° NNE night (unlit)
09 Dec - 03:19:04 10° NW 03:22:07 15° N 03:25:01 10° NNE visible
09 Dec - 05:03:38 10° NNW 05:06:48 16° NNE 05:09:49 10° NE visible
09 Dec - 06:46:07 10° NNW 06:50:48 40° NE 06:55:06 10° ESE visible
09 Dec - 08:28:55 10° NW 08:33:22 38° WSW 08:37:29 10° S daylight
09 Dec - 23:06:31 10° SSW 23:12:12 52° ESE 23:17:29 10° NE night (unlit)
